FW9985 Weather Reports


time (UTC)temp
C
wind
direction
speed
KPH
gust
KPH
rain 1hr
cm
rain 24hr
cm
rain mn
cm
humidity
%
barometer
mb
20260504044528 10 221 4.8 8.0 0.00 0.00 0.00 61 1013.1
20260504043028 10 221 4.8 6.4 0.00 0.00 0.00 61 1013.1
20260504041540 10 221 3.2 6.4 0.00 0.00 0.00 60 1013.1
20260504040039 10 221 3.2 8.0 0.00 0.00 0.00 58 1013.3
20260504034529 10 241 3.2 11.3 0.00 0.00 0.00 57 1013.4
20260504033030 10 256 4.8 9.7 0.00 0.00 0.00 57 1013.4
20260504031528 10 296 4.8 11.3 0.00 0.00 0.00 56 1013.5
20260504030035 10 270 6.4 14.5 0.00 0.00 0.00 55 1013.6
20260504024531 10 273 11.3 16.1 0.00 0.00 0.00 56 1013.7
20260504023031 9 234 8.0 17.7 0.00 0.00 0.00 58 1013.8
20260504021528 8 215 4.8 6.4 0.00 0.00 0.00 58 1013.5
20260504020036 9 215 4.8 6.4 0.00 0.00 0.00 56 1013.4
20260504014531 10 215 3.2 8.0 0.00 0.00 0.00 52 1013.5
20260504013032 10 215 3.2 8.0 0.00 0.00 0.00 51 1013.3
20260504011528 11 215 4.8 8.0 0.00 0.00 0.00 50 1013.3
20260504010030 11 222 6.4 11.3 0.00 0.00 0.00 48 1013.3
20260504004528 12 238 4.8 11.3 0.00 0.00 0.00 47 1013.3
20260504003028 12 237 6.4 14.5 0.00 0.00 0.00 45 1013.2
20260504001535 12 244 8.0 20.9 0.00 0.00 0.00 45 1013.2
20260504000029 12 274 8.0 24.1 0.00 0.00 0.00 44 1013.3
20260503234616 13 246 11.3 22.5 0.00 0.00 0.00 44 1013.6
20260503233030 13 246 16.1 29.0 0.00 0.00 0.00 43 1013.5
20260503231532 13 236 16.1 30.6 0.00 0.00 0.00 43 1013.5
20260503230038 13 265 17.7 32.2 0.00 0.00 0.00 42 1013.6
20260503224530 13 245 17.7 37.0 0.00 0.00 0.00 42 1013.5
20260503223028 13 258 19.3 33.8 0.00 0.00 0.00 41 1013.7
20260503221530 13 275 20.9 32.2 0.00 0.00 0.00 42 1013.8
20260503220030 14 234 19.3 30.6 0.00 0.00 0.00 41 1013.8
20260503214537 14 228 19.3 30.6 0.00 0.00 0.00 41 1013.9
20260503213031 14 247 12.9 25.7 0.00 0.00 0.00 40 1013.8
20260503211532 14 267 12.9 22.5 0.00 0.00 0.00 41 1013.8
20260503210028 13 304 8.0 37.0 0.00 0.00 0.00 42 1013.7
20260503204529 14 240 19.3 30.6 0.00 0.00 0.00 40 1013.7
20260503203035 15 304 17.7 29.0 0.00 0.00 0.00 40 1013.9
20260503201530 14 305 20.9 33.8 0.00 0.00 0.00 39 1014.1
20260503200029 15 261 12.9 33.8 0.00 0.00 0.00 38 1014.3
20260503194528 14 232 17.7 40.2 0.00 0.00 0.00 38 1014.7
20260503193042 15 252 17.7 32.2 0.00 0.00 0.00 38 1014.7
20260503191559 14 257 16.1 32.2 0.00 0.00 0.00 38 1015.1
20260503190035 15 246 20.9 35.4 0.00 0.00 0.00 39 1015.2
20260503184529 14 278 20.9 35.4 0.00 0.00 0.00 40 1015.4
20260503183029 14 246 19.3 37.0 0.00 0.00 0.00 38 1015.6
20260503181541 14 240 20.9 30.6 0.00 0.00 0.00 42 1015.8
20260503180030 14 260 17.7 32.2 0.00 0.00 0.00 40 1015.9
20260503174532 13 297 14.5 30.6 0.00 0.00 0.00 44 1016.1
20260503173030 13 262 11.3 29.0 0.00 0.00 0.00 46 1016.2
20260503171528 13 295 17.7 38.6 0.00 0.00 0.00 45 1016.5
20260503081535 1 0 0.0 0.0 0.00 0.00 0.00 88 1016.6
20260503071530 2 0 0.0 3.2 0.00 0.00 0.00 88 1016.4
20260503054543 2 0 0.0 1.6 0.00 0.00 0.00 88 1016.5
20260503053031 2 0 0.0 4.8 0.00 0.00 0.00 88 1016.6
20260503051529 2 0 0.0 1.6 0.00 0.00 0.00 88 1016.7
20260503050033 2 0 0.0 3.2 0.00 0.00 0.00 88 1016.8